Regional Weather Roundup
Issued by NWS Boston, MA

Current Version | Previous Version | Graphics & Text | Print | Product List | Glossary On
Versions: 1 2 3 4 5 6 7 8 9 10 11 12 13 14 15 16 17 18 19 20 21 22 23 24 25 26 27 28 29 30 31 32 33 34 35 36 37 38 39 40 41 42 43 44 45 46 47 48 49 50
000
ASUS41 KBOX 051704
RWRBOX

REGIONAL WEATHER ROUNDUP
NATIONAL WEATHER SERVICE BOSTON/NORTON MA
100 PM EDT WED AUG 05 2020

NOTE:  "FAIR" INDICATES FEW OR NO CLOUDS BELOW 12,000 FEET WITH NO
SIGNIFICANT WEATHER AND/OR OBSTRUCTIONS TO VISIBILITY.

MAZALL-051800-
EASTERN MASSACHUSETTS

CITY           SKY/WX    TMP DP  RH WIND       PRES   REMARKS
BOSTON         PTSUNNY   87  62  43 SW18      29.96F
BEVERLY        PTSUNNY   85  65  51 W9        29.96F
LAWRENCE       PTSUNNY   87  67  51 SW10G20   29.98F HX  90
BEDFORD        PTSUNNY   86  66  51 W5        29.96F
BLUE HILL        N/A     86  65  49 SW9       29.99F
NORWOOD        MOSUNNY   88  66  48 SW12      29.96F HX  90
MARSHFIELD     MOSUNNY   91  68  46 SW10G20   29.96F HX  95
PLYMOUTH       MOSUNNY   87  70  56 SW15G24   29.99S HX  92
TAUNTON        MOSUNNY   89  70  53 S10G20    29.98F HX  94
NEW BEDFORD    SUNNY     87  71  58 S14       30.00S HX  93
$$

MAZALL-051800-
CAPE COD AND THE ISLANDS

CITY           SKY/WX    TMP DP  RH WIND       PRES   REMARKS
FALMOUTH       MOSUNNY   84  72  65 SW15      30.01S
HYANNIS        MOSUNNY   84  73  69 SW15G22   30.00F HX  90
CHATHAM        CLOUDY    84  74  71 SW14G26   30.03S HX  91
NANTUCKET      CLOUDY    78  71  79 S16       30.04S
MARTHAS VNYRD  PTSUNNY   80  73  79 SW13G21   30.02F
$$

MAZALL-051800-
CENTRAL AND WESTERN MASSACHUSETTS

CITY           SKY/WX    TMP DP  RH WIND       PRES   REMARKS
WORCESTER      SUNNY     84  62  47 SW13      30.02S
FITCHBURG      MOSUNNY   84  60  44 W10       29.99S
ORANGE         PTSUNNY   81  65  58 VRB5      29.99F
SPRINGFIELD    NOT AVBL
WESTFIELD      MOSUNNY   86  63  45 SW14      29.98S
NORTH ADAMS    NOT AVBL
PITTSFIELD     PTSUNNY   79  60  52 W9G17     30.02S
$$

RIZALL-051800-
RHODE ISLAND

CITY           SKY/WX    TMP DP  RH WIND       PRES   REMARKS
PROVIDENCE     MOSUNNY   89  67  47 SW17G29   29.99F HX  92
NEWPORT        SUNNY     81  71  71 S10       30.01F
BLOCK ISLAND   SUNNY     78  69  73 SW14      30.03F
SMITHFIELD     MOSUNNY   85  66  53 VRB7      30.00F
WESTERLY       SUNNY     82  70  66 S12       30.02S
$$

CTZALL-051800-
CONNECTICUT

CITY           SKY/WX    TMP DP  RH WIND       PRES   REMARKS
BRADLEY INTL   PTSUNNY   89  63  41 SW12      29.98F HX  90
HARTFORD       MOSUNNY  N/A N/A N/A W8          N/A
BRIDGEPORT     NOT AVBL
DANBURY        MOSUNNY   80  65  59 SW6       30.04R
GROTON         SUNNY     78  72  81 S8        30.01S
NEW HAVEN      MOSUNNY  N/A N/A N/A SW12      30.01S
CHESTER        FAIR      86  66  51 S13       30.02F
MERIDEN        CLOUDY    83  66  56 VRB5      29.99F
WILLIMANTIC    PTSUNNY   87  66  49 S14       29.98F
OXFORD         PTSUNNY   82  65  56 VRB7      30.04S
$$

MEZ002-015-021-024-NHZ003-005-008-011-012-014-VTZ005-008-051800-
NORTHERN NEW ENGLAND

CITY           SKY/WX    TMP DP  RH WIND       PRES   REMARKS
PORTLAND ME    MOSUNNY   82  67  60 SE10      29.95R
BANGOR ME      MOSUNNY   83  68  60 S12       29.91S
CONCORD NH     MOSUNNY   83  61  47 W9        29.96F
MANCHESTER NH  MOSUNNY   88  61  40 W9G17     29.95F
NASHUA NH      PTSUNNY   86  65  49 W6G16     29.97F
PORTSMOUTH NH  MOSUNNY   85  60  41 SW14      29.94S
JAFFREY NH     MOSUNNY   81  62  52 S10       30.01F
KEENE NH       PTSUNNY   80  63  55 SW7       29.98F
BURLINGTON VT  PTSUNNY   74  59  59 W12G20    29.94R
MT. WASHINGTON FOG       50  50 100 W43         N/A  VSB 5/16
$$

NYZ052-076-051800-
EASTERN NEW YORK

CITY           SKY/WX    TMP DP  RH WIND       PRES   REMARKS
ALBANY         PTSUNNY   75  60  59 W15       30.01R
NEW YORK CITY  PTSUNNY   86  60  41 W8        30.00F
$$

ANZALL-051800-
MARINE OBSERVATIONS

STATION/POSITION TIME  TEMP    WIND        PRES    VSBY  WAVE
                       AIR SEA DIR/SP/G                  HT/PER
                 (UTC) (F)     (DEG/KT/KT) (MB)    (MI)  (FT/S)
BOSTON BUOY      1650   69 62  140/  8/ 10 1013.8F         2/ 5
BUZZARDS BAY     1600          220/ 16/ 17 1017.4F
NANTUCKET SOUND  1650      77  210/ 16/ 17   N/A           2/ 3
MASS BAY-STELLWA 1604   69     180/ 10/ 12 1013.1F  1 7/8  2/ 5
ISLE OF SHOALS   1600   74     170/ 15/ 16 1014.1F
S OF BLOCK IS    1626      71                N/A           8/ 8
$$

......................KEY.........................
  SKY/WX - SKY CONDITION/PRESENT WEATHER
  TMP    - TEMPERATURE IN FAHRENHEIT
  DWPT   - DEWPOINT IN FAHRENHEIT
  RH     - RELATIVE HUMIDITY IN PERCENT
  WIND   - DIRECTION AND SPEED IN MPH
  PRES   - MEAN SEA LEVEL PRESSURE IN INCHES OF HG
  WCI    - WIND CHILL INDEX
  VSB    - VISIBILITY IN MILES
  HX     - HEAT INDEX
  TC     - TEMPERATURE IN CELSIUS
  VRB    - VARIABLE WIND DIRECTION
  N/A    - NOT AVAILABLE




USA.gov is the U.S. government's official web portal to all federal, state and local government web resources and services.